Lexington, KY

5:33 PM EDT on April 19, 2018 (GMT -0400)
Blue Grass

Weather History for KLEX - April, 2014

Change the Weather History Date:

Friday, April 4, 2014

  Actual Average Record
Temperature  
Mean Temperature 55 °F 52 °F  
Max Temperature 66 °F 62 °F 86 °F (1934)
Min Temperature 44 °F 41 °F 23 °F (1944)
Degree Days  
Heating Degree Days 10 14  
Month to date heating degree days 14 57  
Since 1 July heating degree days 4573 4233  
Cooling Degree Days 0 0  
Month to date cooling degree days 2 0  
Year to date cooling degree days 2 2  
Growing Degree Days 4 (Base 50)    
Moisture  
Dew Point 53 °F    
Average Humidity 75    
Maximum Humidity 90    
Minimum Humidity 59    
Precipitation  
Precipitation 0.40 in 0.10 in 2.95 in (2008)
Month to date precipitation 1.38 0.45  
Year to date precipitation 11.31 10.92  
Snow  
Snow 0.00 in 0.00 in 4.80 in (1987)
Month to date snowfall 0.0 0.1  
Since 1 July snowfall 26.8 12.8  
Snow Depth 0.00 in    
Sea Level Pressure  
Sea Level Pressure 29.75 in    
Wind  
Wind Speed 16 mph (SW)    
Max Wind Speed 32 mph    
Max Gust Speed 41 mph    
Visibility 8 miles    
Events Rain , Thunderstorm    
T = Trace of Precipitation, MM = Missing Value Source: NWS Daily Summary

Daily Weather History Graph

Daily Weather History Graph

Search for Another Location

Airport or City:

Astronomy

Apr. 04, 2014 Rise Set
Actual Time 7:19 AM EDT 8:04 PM EDT
Civil Twilight 6:52 AM EDT 8:30 PM EDT
Nautical Twilight 6:20 AM EDT 9:02 PM EDT
Astronomical Twilight 5:48 AM EDT 9:35 PM EDT
Moon 10:38 AM EDT (4/4) 12:18 AM EDT (4/4)
Length of Visible Light 13h 38m
Length of Day
12h 45m
Waxing Crescent, 25% of the Moon is Illuminated
Apr 4
Waxing Crescent
Apr 7
First Quarter
Apr 15
Full
Apr 22
Last Quarter
Apr 29
New

Hourly Weather History & Observations

Time (EDT) Temp. Windchill Dew Point Humidity Pressure Visibility Wind Dir Wind Speed Gust Speed Precip Events Conditions
12:49 AM 60.8 °F - 57.2 °F 88% 29.82 in 8.0 mi South 15.0 mph - 0.03 in Rain , Thunderstorm Thunderstorms and Rain
12:54 AM 61.0 °F - 57.9 °F 90% 29.79 in 10.0 mi SSE 11.5 mph - 0.03 in Rain , Thunderstorm Light Thunderstorms and Rain
1:11 AM 61.0 °F - 57.9 °F 90% 29.80 in 10.0 mi SSE 11.5 mph - 0.00 in Rain Light Rain
1:54 AM 61.0 °F - 57.9 °F 90% 29.75 in 10.0 mi SE 8.1 mph - 0.00 in   Overcast
2:54 AM 61.0 °F - 57.9 °F 90% 29.72 in 10.0 mi SSE 12.7 mph - N/A   Overcast
3:54 AM 62.1 °F - 57.0 °F 84% 29.68 in 10.0 mi South 13.8 mph - N/A   Scattered Clouds
4:54 AM 63.0 °F - 57.9 °F 84% 29.65 in 10.0 mi South 10.4 mph - N/A   Overcast
5:40 AM 64.9 °F - 57.9 °F 78% 29.64 in 10.0 mi South 12.7 mph 21.9 mph N/A Thunderstorm Overcast
5:52 AM 64.4 °F - 57.2 °F 77% 29.68 in 5.0 mi WSW 19.6 mph 41.4 mph 0.01 in Rain , Thunderstorm Light Thunderstorms and Rain
5:54 AM 66.0 °F - 57.9 °F 75% 29.66 in 4.0 mi West 17.3 mph 41.4 mph 0.05 in Rain , Thunderstorm Heavy Thunderstorms and Rain
6:19 AM 61.0 °F - 57.9 °F 90% 29.69 in 10.0 mi NW 6.9 mph - 0.09 in Rain Light Rain
6:35 AM 61.0 °F - 57.9 °F 90% 29.68 in 10.0 mi Calm Calm - 0.09 in   Overcast
6:54 AM 60.1 °F - 57.9 °F 93% 29.66 in 10.0 mi SSE 5.8 mph - 0.09 in Rain Light Rain
7:12 AM 60.1 °F - 57.9 °F 93% 29.67 in 5.0 mi Calm Calm - 0.02 in Rain Light Rain
7:27 AM 60.1 °F - 57.9 °F 93% 29.68 in 9.0 mi West 3.5 mph - 0.02 in Rain Light Rain
7:49 AM 59.0 °F - 57.2 °F 94% 29.72 in 2.5 mi SSW 8.1 mph - 0.06 in Rain Rain
7:54 AM 60.1 °F - 57.9 °F 93% 29.68 in 1.5 mi West 3.5 mph - 0.13 in Rain Heavy Rain
8:08 AM 59.0 °F - 57.9 °F 96% 29.71 in 2.5 mi SW 3.5 mph - 0.04 in Rain Rain
8:28 AM 60.1 °F - 57.9 °F 93% 29.71 in 2.5 mi West 10.4 mph - 0.06 in Rain Light Rain
8:41 AM 60.1 °F - 57.9 °F 93% 29.71 in 2.5 mi WSW 10.4 mph - 0.06 in Rain Light Rain
8:51 AM 60.8 °F - 57.2 °F 88% 29.72 in 10.0 mi WSW 8.1 mph - 0.06 in Rain Light Rain
8:54 AM 60.1 °F - 57.9 °F 93% 29.71 in 10.0 mi SW 12.7 mph - 0.06 in Rain Light Rain
9:54 AM 60.1 °F - 57.0 °F 90% 29.68 in 8.0 mi SSE 9.2 mph - 0.06 in Rain Light Rain
9:56 AM 60.1 °F - 57.0 °F 90% 29.68 in 4.0 mi SSE 11.5 mph - 0.00 in Rain Light Rain
10:54 AM 63.0 °F - 59.0 °F 87% 29.66 in 10.0 mi South 13.8 mph - 0.01 in   Clear
11:54 AM 63.0 °F - 57.0 °F 81% 29.68 in 10.0 mi SSW 17.3 mph - N/A   Overcast
12:31 PM 63.0 °F - 55.9 °F 78% 29.69 in 10.0 mi SW 24.2 mph 32.2 mph N/A   Overcast
12:54 PM 62.1 °F - 55.9 °F 80% 29.70 in 10.0 mi SW 19.6 mph 27.6 mph 0.00 in Rain Light Rain
1:54 PM 63.0 °F - 55.9 °F 78% 29.70 in 10.0 mi WSW 17.3 mph 29.9 mph 0.00 in   Mostly Cloudy
2:54 PM 64.9 °F - 53.1 °F 65% 29.69 in 10.0 mi SW 26.5 mph 35.7 mph N/A   Mostly Cloudy
3:34 PM 61.0 °F - 52.0 °F 72% 29.74 in 10.0 mi West 27.6 mph 38.0 mph N/A   Overcast
3:54 PM 59.0 °F - 48.9 °F 69% 29.75 in 10.0 mi West 27.6 mph 40.3 mph N/A   Overcast
4:54 PM 57.2 °F - 44.6 °F 63% 29.80 in 10.0 mi WSW 25.3 mph 34.5 mph N/A   Mostly Cloudy
5:11 PM 55.9 °F - 45.0 °F 67% 29.81 in 10.0 mi West 23.0 mph 29.9 mph N/A   Mostly Cloudy
5:54 PM 54.0 °F - 39.9 °F 59% 29.83 in 10.0 mi West 24.2 mph 35.7 mph N/A   Scattered Clouds
6:54 PM 50.0 °F - 37.9 °F 63% 29.89 in 10.0 mi West 18.4 mph 28.8 mph N/A   Mostly Cloudy
7:54 PM 46.9 °F - 36.0 °F 66% 29.93 in 10.0 mi West 19.6 mph 26.5 mph N/A   Overcast
8:54 PM 46.0 °F 38.3 °F 35.1 °F 66% 29.96 in 10.0 mi WNW 20.7 mph 26.5 mph N/A   Overcast
9:54 PM 45.0 °F 37.6 °F 32.0 °F 60% 30.00 in 10.0 mi WNW 17.3 mph 26.5 mph N/A   Overcast
10:54 PM 45.0 °F 37.6 °F 32.0 °F 60% 30.01 in 10.0 mi West 17.3 mph 25.3 mph N/A   Overcast
11:54 PM 45.0 °F 39.3 °F 32.0 °F 60% 30.02 in 10.0 mi West 11.5 mph - N/A   Overcast